OBJECT D

Satellite information

Favourite Embed

Satellite Type and Status

UNKNOWNIN ORBIT

Key statistics

Satellite OBJECT D at a glance.

Uptime

1103

Days in orbit

Revolutions

≈ 15.3

Per day

Orbit

SSO

Sun Synchronous Orbit

Inclination

97.7

Latest

Satellite identification and parameters

Extended collection of information and parameters for OBJECT D.

Object identification

Identified? True

Debris? False

Object name: OBJECT D

International designator: 2022-167D

Object number (NORAD): 54685

Object ID (CCSDS): 54685

Country: PEOPLES REPUBLIC OF CHINA (PRC)

Current information (Y/N): Y

RCS size: MEDIUM

Orbital parameters

Period: 94.044 minutes

Inclination: 97.6719 deg

SMA: 6850.388 km

Apoapsis: 474.906 km

Periapsis: 469.6 km

RAAN: 148.6644 deg

Eccentricy: 0.0003873

Argument of periapsis: 61.8817 deg

Mean anomaly: 298.2814 deg

Mean motion: 15.31193243 rev/day

Mean motion (dot): 0.00010266 rev/day2

B* drag term: 0.00034323929 1/REarth

Two-line elements (TLE)

Creation date: Dec. 16, 2025, 2:19 a.m.

Reference frame: TEME

Reference center: EARTH

Epoch: Dec. 15, 2025, 11:30 p.m. UTC

TLE line 0: 0 OBJECT D

TLE line 1: 1 54685U 22167D 25349.97983502 .00010266 00000-0 34324-3 0 9996

TLE line 2: 2 54685 97.6719 148.6644 0003873 61.8817 298.2814 15.31193243167363

Live tracking on map

Real-time ground track for satellite OBJECT D.

In-orbit conjunctions

There are no conjunctions computed for OBJECT D, at the moment. Check back to stay up to date, as we update our databases every day.

Go to all conjunctions

Associated space launch

First flight of the new solid fuel powered rocket developed by CAST. Payload consists of 14 satellites: * Jilin-1 HR-03D 44-50 * Jilin-1 PT-01A 01 * Tianqi-7 * HEAD-2H * CAS-5A * Golden Bauhinia 1-05 & 06 * Huoju-1

OBJECT D was lifted into orbit during the mission ‘Smart Dragon 3 | Maiden Flight’, on board a Smart Dragon 3 space rocket.

The launch took place on Dec. 9, 2022, 6:35 a.m. from Tai Rui mobile launch platform.

For more information about the launch, click the button.

Launch to space Smart Dragon 3 | Maiden Flight
Smart Dragon 3 | Maiden Flight

Agency: N/A

Status: Launch Successful

Launch date: Dec. 9, 2022, 6:35 a.m. UTC

Rocket: Smart Dragon 3

Launch pad: Tai Rui mobile launch platform

Location: Sea Launch

...

Latest news about this satellite

News about space launch
China launches 14 satellites with new solid rocket from mobile sea platform

China launched its new Jielong-3 rocket from a mobile sea platform in the Yellow Sea Friday, successfully sending 14 satellites into orbit.


Newsletter sign-up

Weekly statistics, charts and insights to help you stay on top of the space industry.